Time+03,TemperatureF,Dew PointF,Humidity,Sea Level PressureIn,VisibilityMPH,Wind Direction,Wind SpeedMPH,Gust SpeedMPH,PrecipitationIn,Events,Conditions,WindDirDegrees,DateUTC
12:55 AM,65.3,56.3,73,30.00,6.2,Calm,Calm,-,N/A,,Clear,0,2012-12-09 21:55:00
1:55 AM,65.1,56.7,74,29.99,6.2,Calm,Calm,-,N/A,,Clear,0,2012-12-09 22:55:00
2:55 AM,64.9,57.4,76,29.99,6.2,NW,3.5,-,N/A,,Clear,320,2012-12-09 23:55:00
3:55 AM,63.7,56.7,78,29.98,6.2,Calm,Calm,-,N/A,,Clear,0,2012-12-10 00:55:00
4:55 AM,63.5,56.7,78,29.98,6.2,NNW,3.5,-,N/A,,Clear,340,2012-12-10 01:55:00
5:55 AM,62.4,56.3,80,30.00,6.2,WNW,4.6,-,N/A,,Clear,290,2012-12-10 02:55:00
6:55 AM,63.3,57.0,80,30.02,6.2,Calm,Calm,-,N/A,,Clear,0,2012-12-10 03:55:00
7:55 AM,68.5,59.0,72,30.04,6.2,Calm,Calm,-,N/A,,Clear,0,2012-12-10 04:55:00
8:55 AM,74.5,59.2,59,30.05,6.2,Calm,Calm,-,N/A,,Clear,0,2012-12-10 05:55:00
9:55 AM,76.8,58.1,52,30.04,6.2,Calm,Calm,-,N/A,,Clear,0,2012-12-10 06:55:00
10:55 AM,80.1,56.8,45,30.01,6.2,Calm,Calm,-,N/A,,Clear,0,2012-12-10 07:55:00
11:55 AM,81.3,55.9,42,29.98,6.2,Calm,Calm,-,N/A,,Clear,0,2012-12-10 08:55:00
12:55 PM,83.3,55.0,38,29.95,6.2,West,3.5,-,N/A,,Clear,260,2012-12-10 09:55:00
1:55 PM,83.5,55.8,39,29.93,6.2,Calm,Calm,-,N/A,,Clear,0,2012-12-10 10:55:00
2:55 PM,84.4,55.9,38,29.93,6.2,Calm,Calm,-,N/A,,Clear,0,2012-12-10 11:55:00
3:55 PM,82.6,58.1,43,29.92,6.2,East,12.7,-,N/A,,Clear,100,2012-12-10 12:55:00
4:55 PM,79.0,57.0,47,29.94,6.2,ESE,8.1,-,N/A,,Clear,110,2012-12-10 13:55:00
5:55 PM,77.2,57.6,51,29.95,6.2,ESE,8.1,-,N/A,,Clear,120,2012-12-10 14:55:00
7:55 PM,72.9,61.5,67,29.96,6.2,SE,6.9,-,N/A,,Clear,130,2012-12-10 16:55:00
8:55 PM,72.9,61.9,68,29.96,6.2,SE,5.8,-,N/A,,Clear,130,2012-12-10 17:55:00
9:55 PM,70.0,62.2,76,29.97,6.2,SSE,5.8,-,N/A,,Clear,160,2012-12-10 18:55:00
10:55 PM,68.0,60.6,77,29.96,6.2,South,4.6,-,N/A,,Clear,170,2012-12-10 19:55:00
11:55 PM,68.2,61.9,80,29.94,6.2,SSE,4.6,-,N/A,,Clear,160,2012-12-10 20:55:00